Marion Regional, IL

6:13 AM CDT on June 28, 2017 (GMT -0500)
Williamson County Regional

Weather History for KMWA - December, 2012

Change the Weather History Date:

Friday, December 14, 2012

  Actual Average Record
Temperature  
Mean Temperature 44 °F -  
Max Temperature 55 °F 43 °F 68 °F (1971)
Min Temperature 32 °F 25 °F 2 °F (1985)
Degree Days  
Heating Degree Days 22    
Moisture  
Dew Point 31 °F    
Average Humidity 62    
Maximum Humidity 93    
Minimum Humidity 36    
Precipitation  
Precipitation 0.00 in - - ()
Sea Level Pressure  
Sea Level Pressure 30.19 in    
Wind  
Wind Speed 6 mph (South)    
Max Wind Speed 14 mph    
Max Gust Speed -    
Visibility 12 miles    
Events      
Averages and records for this station are not official NWS values.
T = Trace of Precipitation, MM = Missing Value Source: NWS Daily Summary

Daily Weather History Graph

Daily Weather History Graph

Search for Another Location

Airport or City:

Trip Planner

Search our weather history database for the weather conditions in past years. The results will help you decide how hot, cold, wet, or windy it might be!

Date:

Astronomy

Dec. 14, 2012 Rise Set
Actual Time 7:03 AM CST 4:38 PM CST
Civil Twilight 6:34 AM CST 5:07 PM CST
Nautical Twilight 6:01 AM CST 5:40 PM CST
Astronomical Twilight 5:29 AM CST 6:12 PM CST
Moon 8:09 AM CST (12/14) 6:29 PM CST (12/14)
Length of Visible Light 10h 33m
Length of Day
9h 34m
Waxing Crescent, 3% of the Moon is Illuminated
Dec 14
Waxing Crescent
Dec 19
First Quarter
Dec 28
Full
Jan 4
Last Quarter
Jan 11
New

Hourly Weather History & Observations

Time (CST) Temp. Windchill Dew Point Humidity Pressure Visibility Wind Dir Wind Speed Gust Speed Precip Events Conditions
12:15 AM 35.6 °F 29.2 °F 28.4 °F 75% 30.25 in 10.0 mi South 8.1 mph - N/A   Clear
12:35 AM 35.6 °F 31.7 °F 28.4 °F 75% 30.25 in 10.0 mi SSW 4.6 mph - N/A   Clear
12:55 AM 35.6 °F 32.8 °F 28.4 °F 75% 30.26 in 10.0 mi SSW 3.5 mph - N/A   Clear
1:15 AM 39.2 °F 35.9 °F 28.4 °F 65% 30.26 in 10.0 mi South 4.6 mph - N/A   Clear
1:55 AM 37.4 °F 32.8 °F 28.4 °F 70% 30.26 in 10.0 mi South 5.8 mph - N/A   Clear
2:15 AM 37.4 °F 33.8 °F 28.4 °F 70% 30.26 in 10.0 mi South 4.6 mph - N/A   Clear
2:35 AM 37.4 °F 33.8 °F 28.4 °F 70% 30.26 in 10.0 mi South 4.6 mph - N/A   Clear
2:55 AM 35.6 °F - 28.4 °F 75% 30.26 in 10.0 mi Calm Calm - N/A   Clear
3:15 AM 32.0 °F - 26.6 °F 80% 30.27 in 10.0 mi Calm Calm - N/A   Clear
3:35 AM 32.0 °F - 28.4 °F 87% 30.27 in 10.0 mi Calm Calm - N/A   Clear
3:55 AM 32.0 °F - 30.2 °F 93% 30.27 in 10.0 mi Calm Calm - N/A   Clear
4:15 AM 32.0 °F - 28.4 °F 87% 30.28 in 10.0 mi Calm Calm - N/A   Clear
4:35 AM 32.0 °F - 30.2 °F 93% 30.28 in 10.0 mi Calm Calm - N/A   Clear
4:55 AM 33.8 °F 30.8 °F 30.2 °F 87% 30.28 in 10.0 mi South 3.5 mph - N/A   Clear
5:15 AM 33.8 °F - 30.2 °F 87% 30.28 in 10.0 mi Calm Calm - N/A   Clear
5:35 AM 33.8 °F 29.6 °F 28.4 °F 81% 30.27 in 10.0 mi South 4.6 mph - N/A   Clear
6:55 AM 33.8 °F 26.4 °F 28.4 °F 81% 30.26 in 20.0 mi SSE 9.2 mph - N/A   Scattered Clouds
7:48 AM 35.6 °F 28.6 °F 28.4 °F 75% 30.28 in 20.0 mi South 9.2 mph - N/A   Partly Cloudy
9:58 AM 48.2 °F - 32.0 °F 54% 30.28 in 20.0 mi South 9.2 mph - N/A   Scattered Clouds
11:52 AM 53.6 °F - 28.4 °F 38% 30.23 in 20.0 mi South 11.5 mph - N/A   Mostly Cloudy
12:58 PM 55.4 °F - 28.4 °F 36% 30.21 in 20.0 mi South 11.5 mph - N/A   Overcast
1:55 PM 55.4 °F - 28.4 °F 36% 30.19 in 20.0 mi South 9.2 mph - N/A   Mostly Cloudy
2:55 PM 53.6 °F - 30.2 °F 41% 30.17 in 20.0 mi South 9.2 mph - N/A   Mostly Cloudy
3:55 PM 51.8 °F - 32.0 °F 47% 30.16 in 20.0 mi South 9.2 mph - N/A   Mostly Cloudy
4:55 PM 51.8 °F - 32.0 °F 47% 30.14 in 20.0 mi South 6.9 mph - N/A   Overcast
5:55 PM 50.0 °F - 32.0 °F 50% 30.14 in 20.0 mi South 8.1 mph - N/A   Overcast
6:55 PM 50.0 °F - 32.0 °F 50% 30.12 in 10.0 mi SE 5.8 mph - N/A   Clear
7:15 PM 50.0 °F - 32.0 °F 50% 30.11 in 10.0 mi SSE 5.8 mph - N/A   Clear
7:35 PM 48.2 °F - 32.0 °F 54% 30.11 in 10.0 mi South 4.6 mph - N/A   Clear
7:55 PM 46.4 °F 44.3 °F 33.8 °F 62% 30.12 in 10.0 mi South 4.6 mph - N/A   Clear
8:15 PM 46.4 °F 44.3 °F 33.8 °F 62% 30.11 in 10.0 mi SSE 4.6 mph - N/A   Clear
8:35 PM 50.0 °F - 32.0 °F 50% 30.11 in 10.0 mi SSE 3.5 mph - N/A   Scattered Clouds
8:55 PM 50.0 °F - 32.0 °F 50% 30.10 in 10.0 mi SSE 4.6 mph - N/A   Mostly Cloudy
9:15 PM 50.0 °F - 32.0 °F 50% 30.09 in 10.0 mi SE 5.8 mph - N/A   Mostly Cloudy
9:35 PM 50.0 °F - 32.0 °F 50% 30.09 in 10.0 mi SSE 8.1 mph - N/A   Scattered Clouds
9:55 PM 50.0 °F - 32.0 °F 50% 30.08 in 10.0 mi SSE 9.2 mph - N/A   Scattered Clouds
10:15 PM 51.8 °F - 32.0 °F 47% 30.07 in 10.0 mi SSE 10.4 mph - N/A   Scattered Clouds
10:35 PM 51.8 °F - 32.0 °F 47% 30.09 in 10.0 mi South 13.8 mph - N/A   Scattered Clouds
10:55 PM 50.0 °F - 33.8 °F 54% 30.10 in 10.0 mi South 10.4 mph - N/A   Clear
11:15 PM 50.0 °F - 33.8 °F 54% 30.10 in 10.0 mi South 10.4 mph - N/A   Clear
11:35 PM 50.0 °F - 35.6 °F 58% 30.09 in 10.0 mi South 11.5 mph - N/A   Mostly Cloudy
11:55 PM 51.8 °F - 35.6 °F 54% 30.05 in 10.0 mi SSE 10.4 mph - N/A   Mostly Cloudy